Regional Weather Roundup
Issued by NWS Kansas City/Pleasant Hill, MO

Current Version | Previous Version | Text Only | Print | Product List | Glossary On
Versions: 1 2 3 4 5 6 7 8 9 10 11 12 13 14 15 16 17 18 19 20 21 22 23 24 25 26 27 28 29 30 31 32 33 34 35 36 37 38 39 40 41 42 43 44 45 46 47 48 49 50
000
ASUS43 KEAX 122010
RWREAX

WEATHER ROUNDUP FOR EASTERN KANSAS AND NORTHWEST MISSOURI
NATIONAL WEATHER SERVICE KANSAS CITY/PLEASANT HILL MO
200 PM CST TUE DEC 12 2017

KSZ040-057-103>105-MOZ028-029-037-043-122100-
...KANSAS CITY METROPOLITAN AREA...

CITY           SKY/WX    TMP DP  RH WIND       PRES   REMARKS
K.C. INTL      MOSUNNY   37  16  42 W9        30.22F WCI  30
K.C. DOWNTOWN  SUNNY     39  15  37 W8        30.23F WCI  33
LEES SUMMIT    SUNNY     38  10  31 NW12      30.23F WCI  30
OLATHE - IXD   SUNNY     38  15  39 W7        30.24F WCI  33
OLATHE - OJC   SUNNY     37  16  42 NW10      30.23F WCI  30
LAWRENCE       SUNNY     41  22  46 W12       30.24F WCI  34

$$

MOZ001>008-011>017-020>025-030>033-038>040-044>046-053-054-122100-
...NORTHERN AND CENTRAL MISSOURI...

CITY           SKY/WX    TMP DP  RH WIND       PRES   REMARKS
ST. JOSEPH     SUNNY     38  21  50 W9        30.22F WCI  31
MOSBY          CLEAR     36  10  35 W12       30.22F WCI  27
WARRENSBURG    SUNNY     37   3  23 W8        30.23F WCI  31
WHITEMAN AFB   MOSUNNY   37   2  22 W8        30.18F WCI  31
CLINTON        SUNNY     37   5  25 W9        30.24F WCI  31
SEDALIA        SUNNY     37   5  26 W10       30.23F WCI  30
WARSAW         NOT AVBL
CHILLICOTHE      N/A     36   4  26 VRB6      30.21F WCI  31
KIRKSVILLE     SUNNY     33   7  33 W9        30.16F WCI  25

$$

MOZ041-047>049-056>058-063>065-088>090-097-122100-
...EASTERN AND SOUTHERN MISSOURI...

CITY           SKY/WX    TMP DP  RH WIND       PRES   REMARKS
ST. LOUIS INTL PTSUNNY   36   3  25 NW13G22   30.16F WCI  27
SPIRIT OF STL  SUNNY     37   4  25 W15G21    30.16F WCI  28
COLUMBIA       SUNNY     35   4  27 W13       30.19F WCI  26
JEFFERSON CITY SUNNY     35   2  24 NW12G20   30.21F WCI  27
ROLLA          SUNNY     34   7  32 W9        30.19F WCI  27
OSAGE BEACH    SUNNY     36   5  27 W7        30.23F WCI  30
SPRINGFIELD    SUNNY     40  12  32 W7        30.22F
BRANSON        MOSUNNY   39  14  35 W8        30.24F WCI  34
JOPLIN         SUNNY     40  10  29 W8G16     30.27F WCI  34
WEST PLAINS    SUNNY     42   8  24 NW13      30.19F

$$

IAZ060-094-KSZ022-034>040-054-083-096-NEZ052-066-093-122100-
...KANSAS...SOUTHEAST NEBRASKA AND IOWA...

CITY           SKY/WX    TMP DP  RH WIND       PRES   REMARKS
TOPEKA         PTSUNNY   43  25  49 VRB7      30.24F
MANHATTAN      SUNNY     45  27  49 SW10      30.22F
EMPORIA        MOSUNNY   45  27  49 W8        30.24F
CHANUTE        SUNNY     45  23  42 N10       30.27F
WICHITA        MOSUNNY   52  30  43 W12       30.25F
OMAHA          PTSUNNY   38  23  55 S10       30.14F WCI  31
LINCOLN        SUNNY     47  27  45 W12G18    30.15F
FALLS CITY     PTSUNNY   39  21  48 W8        30.19F WCI  33
LAMONI         SUNNY     32  10  40 W10       30.15F WCI  24
DES MOINES     MOSUNNY   32  10  40 W9        30.14F WCI  24

$$




USA.gov is the U.S. government's official web portal to all federal, state and local government web resources and services.